[[{"header":{"parameterUnit":"m.s-1","parameterCategory":1,"la1":30.2991,"la2":30.254,"lo1":-89.0895,"lo2":-89.0444,"dy":0.0017,"dx":0.0017,"nx":28,"ny":28,"refTime":"2025-01-06T09:00:00:Z","depth":0,"parameterNumber":2,"parameterNumberName":"U-component_of_WINDS"},"data":[0,0,0,0,0,0,0,0,0,0,0,0,0,0,0,0,0,0,0,0,0,0,0,0,0,0,0,0,0,0,0,0,0,0,0,0,0,0,0,0,0,0,0,0,0,0,0,0,0,0,0,0,0,0,0,0,0,0,2.8683,2.8683,0,2.8715,2.8716,2.8716,2.868,2.8679,2.8677,2.8676,2.8709,2.8711,2.8713,0,0,0,0,0,0,0,0,0,0,0,0,0,2.859,2.8592,2.8683,2.8683,2.8684,2.8715,2.8716,2.8716,2.868,2.8679,2.8677,2.8676,2.8708,2.8711,2.8713,0,0,0,0,0,0,0,0,0,0,0,0,0,2.8627,2.8593,2.8683,2.867,2.8669,2.8715,2.8716,2.8716,2.8681,2.8679,2.8677,2.8675,2.8707,2.871,2.8713,2.8774,0,0,2.8723,2.8725,0,0,0,0,0,0,0,0,2.8625,2.8631,2.8671,2.8671,2.867,2.8692,2.8695,2.8736,2.8681,2.8676,2.8676,2.8674,2.8705,2.8708,2.8718,2.8776,2.8777,2.8724,2.8725,2.8727,2.8728,0,0,0,0,0,0,0,2.8623,2.8629,2.8696,2.8672,2.8671,2.8662,2.8665,2.8702,2.8701,2.8676,2.8674,2.8678,2.8704,2.8715,2.8719,2.8778,2.8723,2.8726,2.8728,2.873,2.8888,2.889,0,0,0,0,0,0,2.8622,2.8627,2.8695,2.8697,2.8642,2.8666,2.8669,2.8687,2.8701,2.8701,2.868,2.8677,2.8711,2.8715,2.872,2.8793,2.8727,2.873,2.8732,2.8885,2.8888,2.8891,0,0,0,0,0,0,2.862,2.8628,2.8693,2.8661,2.8669,2.8669,2.8689,2.8688,2.87,2.8704,2.8703,2.8692,2.871,2.8715,2.8761,2.8793,2.8731,2.8734,2.8883,2.8886,2.8889,2.8938,0,0,0,0,0,0,2.8617,2.8628,2.865,2.8662,2.8671,2.8734,2.8691,2.869,2.8706,2.8701,2.8715,2.8715,2.8708,2.8757,2.8765,2.8796,2.8737,2.888,2.8884,2.8888,2.8933,2.8943,2.895,0,0,0,0,0,2.8614,2.8662,2.8652,2.866,2.8699,2.8736,2.8741,2.8732,2.8708,2.8731,2.8734,2.8715,2.8789,2.8762,2.877,2.8804,2.8878,2.8883,2.8888,2.893,2.8941,2.895,0,0,0,0,0,0,2.8653,2.8663,2.8652,2.8705,2.872,2.873,2.8758,2.8744,2.8766,2.8761,2.8749,2.8753,2.8802,2.8807,2.8777,2.8864,2.8829,2.8836,2.8858,2.8869,2.8877,2.8874,2.8739,0,0,0,0,0,2.8669,2.8697,2.8705,2.8751,2.8759,2.8758,2.8773,2.8766,2.878,2.8786,2.8792,2.8807,2.8834,2.8852,2.8876,2.8935,2.8937,2.8962,2.897,2.8977,2.8983,2.9015,2.9026,2.8907,2.8907,2.8907,0,0,2.8699,2.8709,2.8727,2.8759,2.877,2.88,2.8763,2.8796,2.8819,2.8791,2.8835,2.884,2.8856,2.8909,2.8932,2.8915,2.9017,2.8984,2.8989,2.8991,2.9022,2.9033,2.9043,2.8911,2.891,2.891,0,0,2.8772,2.8781,2.8821,2.8833,2.885,2.8849,2.8859,2.8871,2.8874,2.8918,2.8898,2.8925,2.8971,2.8984,2.8996,2.9075,2.9058,2.9084,2.9128,2.9159,2.9168,2.9177,2.9205,2.9215,2.909,2.909,2.909,0,2.8808,2.8853,2.8844,2.8879,2.8894,2.8872,2.8912,2.8924,2.8948,2.8959,2.894,2.8998,2.9007,2.9063,2.9082,2.9093,2.9104,2.9082,2.9168,2.9176,2.9184,2.9211,2.9221,2.9093,2.9093,2.9092,2.9092,0,2.8897,2.8928,2.8959,2.8984,2.9002,2.904,2.9037,2.9057,2.9048,2.905,2.9096,2.9106,2.9133,2.9146,2.9137,2.9201,2.919,2.917,2.9134,2.9198,2.9223,2.9234,2.9097,2.9096,2.9095,2.9095,0,0,2.8993,2.9013,2.9025,2.9036,2.9054,2.9078,2.9116,2.9143,2.916,2.9178,2.921,2.925,2.9232,2.9246,2.9239,2.9267,2.933,2.9243,2.9243,2.9259,2.9401,2.9416,2.9428,2.9319,2.9321,2.9323,2.94,0,2.9065,2.913,2.9124,2.9186,2.9215,2.9196,2.9228,2.9243,2.9246,2.9272,2.9275,2.9304,2.9277,2.9286,2.9313,2.9316,2.9358,2.9311,2.9348,2.935,2.9344,2.9441,2.9457,2.9528,2.9409,2.9411,2.9412,0,2.9158,2.918,2.9245,2.926,2.9272,2.9301,2.9326,2.9351,2.9368,2.9368,2.9385,2.9374,2.9412,2.9378,2.9431,2.9399,2.9414,2.9418,2.9421,2.9424,2.9384,2.9446,2.9551,2.9562,2.9428,2.9426,2.9425,0,2.9222,2.9268,2.9313,2.9323,2.9341,2.9363,2.9371,2.9386,2.9403,2.9425,2.9436,2.9463,2.9477,2.9498,2.9494,2.9469,2.9549,2.9513,2.955,2.955,2.9566,2.9565,2.9675,2.9577,2.9577,2.9577,2.9577,0,2.9303,2.9343,2.9342,2.9369,2.9414,2.9408,2.9453,2.9459,2.9473,2.9501,2.9486,2.9513,2.9507,2.9535,2.9533,2.9577,2.9584,2.9585,2.9584,2.9586,2.9586,2.9595,2.959,2.958,2.9579,2.9579,2.9578,0,2.9381,2.9381,2.9429,2.9443,2.9448,2.9481,2.9493,2.9519,2.9521,2.9558,2.9566,2.957,2.9602,2.9601,2.9636,2.9635,2.969,2.9683,2.9684,2.9683,2.9719,2.9716,2.9839,2.9855,2.9747,2.9748,2.9749,0,2.9432,2.9463,2.9481,2.95,2.951,2.954,2.9557,2.9552,2.9572,2.9594,2.9618,2.9649,2.9673,2.9724,2.973,2.9758,2.9751,2.9793,2.9755,2.9757,2.9752,2.975,2.9753,2.98,2.9801,2.9802,2.9803,0,2.9524,2.9523,2.9549,2.9576,2.9598,2.9619,2.9638,2.9654,2.9651,2.9674,2.9707,2.9725,2.9763,2.9793,2.982,2.9829,2.9816,2.9815,2.9825,2.9827,2.9826,2.9827,2.9704,2.9812,2.9811,2.981,2.981,2.9809,2.959,2.9617,2.9634,2.9664,2.9679,2.9697,2.9723,2.9729,2.9756,2.9786,2.9782,2.9819,2.9836,2.9871,2.9883,2.9912,2.9897,2.9912,2.9915,2.9919,2.9923,2.9823,2.9917,2.9917,2.9916,2.9916,2.9916,0,2.9681,2.9691,2.9719,2.9747,2.9771,2.9757,2.9778,2.9799,2.9832,2.9849,2.9874,2.9912,2.9942,2.9951,2.998,3.0002,2.9996,3.0009,3.0008,3.001,2.9934,2.9923,3.0013,3.0013,3.0013,3.0013,3.0013,3.0013,2.9731,2.9776,2.9777,2.983,2.984,2.9876,2.9889,2.9907,2.9921,2.9964,2.9989,2.9995,3.001,3.004,3.0068,3.0069,3.0081,3.0097,3.0096,3.0025,3.0015,3.0006,2.9995,3.0099,3.0099,3.0169,3.017,3.017]},{"header":{"parameterUnit":"m.s-1","parameterCategory":1,"la1":30.2991,"la2":30.254,"lo1":-89.0895,"lo2":-89.0444,"dy":0.0017,"dx":0.0017,"nx":28,"ny":28,"refTime":"2025-01-06T09:00:00:Z","depth":0,"parameterNumber":3,"parameterNumberName":"V-component_of_WINDS"},"data":[0,0,0,0,0,0,0,0,0,0,0,0,0,0,0,0,0,0,0,0,0,0,0,0,0,0,0,0,0,0,0,0,0,0,0,0,0,0,0,0,0,0,0,0,0,0,0,0,0,0,0,0,0,0,0,0,0,0,-7.8976,-7.8978,0,-7.9183,-7.9186,-7.9188,-7.9136,-7.9132,-7.9128,-7.9124,-7.9332,-7.9341,-7.935,0,0,0,0,0,0,0,0,0,0,0,0,0,-7.8531,-7.8539,-7.8976,-7.8978,-7.8981,-7.9183,-7.9186,-7.9189,-7.9137,-7.9132,-7.9127,-7.9122,-7.9329,-7.934,-7.9351,0,0,0,0,0,0,0,0,0,0,0,0,0,-7.873,-7.8542,-7.8975,-7.898,-7.8982,-7.9182,-7.9186,-7.9189,-7.9138,-7.9132,-7.9126,-7.912,-7.9326,-7.9339,-7.9353,-7.956,0,0,-7.9396,-7.9402,0,0,0,0,0,0,0,0,-7.8719,-7.8746,-7.8976,-7.898,-7.8983,-7.9128,-7.9105,-7.9314,-7.9139,-7.9079,-7.9124,-7.9117,-7.9269,-7.9287,-7.9339,-7.957,-7.9579,-7.9397,-7.9405,-7.9411,-7.9415,0,0,0,0,0,0,0,-7.8705,-7.8737,-7.9058,-7.898,-7.8984,-7.897,-7.8991,-7.9144,-7.9205,-7.9083,-7.908,-7.9106,-7.9269,-7.9326,-7.9344,-7.9582,-7.9396,-7.9409,-7.9417,-7.9423,-7.9993,-8.0,0,0,0,0,0,0,-7.8689,-7.8726,-7.9051,-7.9064,-7.8833,-7.8983,-7.9007,-7.9087,-7.9203,-7.9215,-7.9111,-7.9103,-7.9305,-7.9327,-7.9351,-7.9601,-7.9411,-7.9424,-7.9432,-7.9987,-7.9995,-8.0002,0,0,0,0,0,0,-7.868,-7.8719,-7.9043,-7.8894,-7.8934,-7.8997,-7.9088,-7.9095,-7.9151,-7.9224,-7.9234,-7.9158,-7.9301,-7.9331,-7.9509,-7.9608,-7.943,-7.9443,-7.9979,-7.9989,-7.9998,-8.0104,0,0,0,0,0,0,-7.8667,-7.8716,-7.8796,-7.8896,-7.8943,-7.9199,-7.9094,-7.9103,-7.9176,-7.9167,-7.9271,-7.9282,-7.9299,-7.9488,-7.9523,-7.9624,-7.9454,-7.997,-7.9983,-7.9995,-8.0092,-8.0117,-8.0138,0,0,0,0,0,-7.8651,-7.8816,-7.88,-7.884,-7.9045,-7.9205,-7.9231,-7.9248,-7.9184,-7.9265,-7.9311,-7.9278,-7.9592,-7.9507,-7.9545,-7.9652,-7.9964,-7.9979,-7.9994,-8.0082,-8.0112,-8.0137,0,0,0,0,0,0,-7.8724,-7.883,-7.8813,-7.9015,-7.9102,-7.9196,-7.9298,-7.928,-7.9385,-7.9372,-7.9388,-7.9411,-7.9593,-7.964,-7.9544,-7.9859,-7.9768,-7.9792,-7.9822,-7.9851,-7.9873,-7.9858,-7.9466,0,0,0,0,0,-7.8764,-7.8887,-7.8972,-7.9142,-7.9187,-7.9235,-7.9306,-7.9312,-7.9401,-7.9437,-7.9497,-7.9583,-7.9701,-7.9778,-7.9891,-8.0099,-8.012,-8.0191,-8.0214,-8.0232,-8.0252,-8.0365,-8.0398,-8.0052,-8.0052,-8.0052,0,0,-7.8847,-7.892,-7.8996,-7.9159,-7.9226,-7.9352,-7.9266,-7.9402,-7.9496,-7.9457,-7.9629,-7.9676,-7.9774,-7.9968,-8.0056,-8.0012,-8.0352,-8.0251,-8.0266,-8.0276,-8.0384,-8.0417,-8.0446,-8.0063,-8.0061,-8.0059,0,0,-7.9063,-7.9131,-7.9281,-7.9351,-7.9455,-7.9486,-7.9522,-7.9619,-7.965,-7.9823,-7.9797,-7.9907,-8.0109,-8.018,-8.0243,-8.0487,-8.046,-8.0522,-8.0642,-8.0752,-8.0779,-8.0803,-8.089,-8.0921,-8.0542,-8.0543,-8.0543,0,-7.9153,-7.9343,-7.9359,-7.9499,-7.9571,-7.9544,-7.9695,-7.9761,-7.9896,-7.9946,-7.9896,-8.015,-8.0214,-8.0424,-8.0483,-8.0535,-8.0576,-8.0511,-8.0774,-8.0798,-8.0821,-8.0904,-8.0937,-8.055,-8.0549,-8.0548,-8.0547,0,-7.9448,-7.958,-7.9688,-7.9821,-7.9905,-8.005,-8.0087,-8.017,-8.0169,-8.0205,-8.0382,-8.0458,-8.0585,-8.0635,-8.0635,-8.0846,-8.0816,-8.077,-8.0679,-8.0861,-8.0939,-8.0971,-8.056,-8.0557,-8.0555,-8.0553,0,0,-7.9716,-7.9857,-7.9896,-7.9956,-8.0069,-8.0171,-8.0314,-8.044,-8.0511,-8.0604,-8.0724,-8.0897,-8.0856,-8.0927,-8.0934,-8.1031,-8.1219,-8.0973,-8.0975,-8.1016,-8.1455,-8.1489,-8.1526,-8.1202,-8.1208,-8.1213,-8.1447,0,-7.9942,-8.0195,-8.0215,-8.0443,-8.0564,-8.054,-8.0665,-8.0747,-8.0785,-8.0892,-8.0933,-8.1055,-8.0992,-8.1034,-8.1129,-8.1176,-8.1307,-8.1159,-8.1312,-8.1318,-8.1289,-8.1567,-8.1603,-8.1821,-8.1478,-8.1483,-8.1487,0,-8.0239,-8.0344,-8.0585,-8.0681,-8.0733,-8.0845,-8.0962,-8.1066,-8.1158,-8.1178,-8.1259,-8.1253,-8.1398,-8.1302,-8.1503,-8.1402,-8.1465,-8.1498,-8.1506,-8.1521,-8.1413,-8.1589,-8.189,-8.1923,-8.1535,-8.1531,-8.1528,0,-8.041,-8.0611,-8.0781,-8.0833,-8.095,-8.1029,-8.1081,-8.1167,-8.1242,-8.1344,-8.1393,-8.151,-8.1574,-8.1664,-8.169,-8.1617,-8.189,-8.1796,-8.191,-8.1909,-8.1968,-8.1964,-8.2284,-8.2009,-8.2009,-8.2008,-8.2008,0,-8.0661,-8.0809,-8.086,-8.0965,-8.113,-8.115,-8.1312,-8.1359,-8.1437,-8.1549,-8.1535,-8.164,-8.1667,-8.1777,-8.1798,-8.1961,-8.199,-8.2009,-8.2013,-8.2011,-8.2009,-8.2053,-8.2038,-8.2017,-8.2015,-8.2013,-8.2012,0,-8.0879,-8.092,-8.1104,-8.1199,-8.1227,-8.1344,-8.1426,-8.1526,-8.1561,-8.1704,-8.1738,-8.1794,-8.1924,-8.1958,-8.2112,-8.2125,-8.2317,-8.2307,-8.2287,-8.2287,-8.2399,-8.2388,-8.2759,-8.2808,-8.2501,-8.2504,-8.2506,0,-8.1037,-8.115,-8.1259,-8.1334,-8.139,-8.1511,-8.1587,-8.1612,-8.1692,-8.1806,-8.1892,-8.202,-8.2123,-8.233,-8.2384,-8.2501,-8.2493,-8.2615,-8.2511,-8.2505,-8.2495,-8.2488,-8.25,-8.2635,-8.2638,-8.2641,-8.2643,0,-8.1311,-8.1326,-8.1438,-8.1558,-8.165,-8.1745,-8.1835,-8.1897,-8.1934,-8.2024,-8.2157,-8.2238,-8.2396,-8.2523,-8.2642,-8.2693,-8.2675,-8.2675,-8.2708,-8.2707,-8.2691,-8.2701,-8.2341,-8.2667,-8.2664,-8.2663,-8.2661,-8.266,-8.1504,-8.1604,-8.1697,-8.1822,-8.1893,-8.1978,-8.2077,-8.2126,-8.2238,-8.237,-8.2377,-8.2521,-8.261,-8.2768,-8.2826,-8.2938,-8.2902,-8.2949,-8.2961,-8.2972,-8.2982,-8.2673,-8.296,-8.2959,-8.2959,-8.2958,-8.2958,0,-8.1778,-8.1837,-8.1952,-8.208,-8.2178,-8.2154,-8.2253,-8.2336,-8.2464,-8.2549,-8.2652,-8.2805,-8.2927,-8.2991,-8.3113,-8.319,-8.3185,-8.3221,-8.3216,-8.3228,-8.3008,-8.2968,-8.3224,-8.3224,-8.3224,-8.3224,-8.3224,-8.3224,-8.1932,-8.2101,-8.2126,-8.2329,-8.2386,-8.2528,-8.2587,-8.2666,-8.2734,-8.2905,-8.3008,-8.3049,-8.3126,-8.3253,-8.3364,-8.338,-8.3425,-8.3467,-8.3477,-8.3271,-8.3243,-8.3218,-8.318,-8.3476,-8.3477,-8.3688,-8.369,-8.3692]}]]